Wind_Speed
15 15 15 15 15 15 16 16 17 17 17 17 18 18 19 19 20 20 20 20 21 22 22 22 22 22 24 23 23 24 25 26 26 27 28 28 29 29 30 30 31 31 31 32 32 32 33 33 34 34 35 35 36 37 38 39 40 41 43 44 44 45 46 47 47 48 49 49 49 50 51 52 54 55 56 58 59 59 60 61 62 62 63 63 63 64
14 14 14 14 14 15 15 15 16 16 17 17 18 19 19 20 20 20 21 21 22 22 23 23 23 24 25 24 24 25 26 27 27 28 29 29 29 30 31 31 31 32 32 32 32 33 33 34 35 35 36 37 37 38 40 41 42 43 44 45 46 47 47 48 49 49 50 50 51 52 54 56 57 58 59 60 60 61 62 62 63 63 64 64 64 65
14 14 14 14 15 15 15 16 16 17 18 18 19 19 20 20 21 21 21 21 22 23 23 24 23 24 26 25 24 25 26 28 28 28 29 29 30 31 32 32 32 33 33 33 33 34 34 35 36 37 37 38 40 41 42 43 44 46 47 48 48 49 49 50 50 51 51 53 54 56 57 58 59 60 60 61 61 62 62 63 63 64 64 64 64 65
15 15 15 15 15 16 16 17 18 18 19 19 19 20 20 21 21 21 22 22 23 24 24 25 24 23 26 28 27 27 27 29 30 28 29 31 32 33 33 33 34 35 34 34 34 35 35 36 37 38 39 40 42 43 44 45 46 48 49 50 50 51 51 51 52 53 54 56 57 58 59 60 61 61 61 61 62 62 63 63 63 63 64 64 64 65
15 15 15 15 16 16 17 17 18 19 19 19 20 20 21 21 22 22 23 23 24 25 25 27 26 22 24 28 29 29 29 30 31 30 30 32 33 33 34 35 36 36 36 35 36 36 37 37 38 39 41 42 43 45 46 47 48 50 51 51 51 52 53 53 55 56 57 58 59 60 61 61 61 62 62 62 63 63 63 63 63 63 64 64 65 65
15 15 15 16 16 17 17 18 18 19 19 19 20 21 21 22 22 23 24 24 25 25 26 28 28 22 21 27 29 30 31 31 31 30 31 32 33 33 34 36 37 37 37 37 37 38 38 38 39 40 41 42 44 46 47 48 50 51 52 52 52 53 54 56 57 58 59 60 61 61 61 62 62 62 62 63 63 63 63 63 64 64 64 65 66 66
14 15 15 16 16 17 17 18 18 19 19 20 20 21 21 22 23 23 24 25 25 26 26 28 29 22 17 24 29 30 32 33 31 31 32 33 33 33 34 36 37 37 37 38 38 38 38 38 39 40 41 42 44 46 48 49 50 52 53 53 54 55 56 57 58 59 60 60 61 61 61 62 62 62 62 63 63 63 64 64 64 64 64 65 66 66
15 15 15 16 16 17 18 18 18 19 20 20 21 22 22 22 23 24 25 25 25 26 25 26 28 23 17 20 28 31 33 33 32 32 33 34 34 34 35 37 37 38 38 38 38 38 37 37 38 39 40 42 44 46 48 50 52 53 54 54 54 55 56 58 59 59 60 60 60 60 60 61 61 61 62 62 63 63 64 64 64 64 65 65 66 67
15 16 16 16 17 18 18 19 19 20 21 21 21 22 22 22 23 23 23 24 24 24 24 24 26 26 20 20 27 32 33 34 33 34 34 35 36 36 37 37 38 38 38 38 37 36 35 36 37 38 40 42 44 47 49 51 52 53 54 54 55 56 57 58 59 59 59 59 59 59 59 60 61 61 62 62 63 64 64 64 64 65 65 66 67 68
16 16 17 17 17 17 18 18 19 19 19 19 20 20 20 21 21 22 22 23 23 23 24 25 26 28 24 21 28 33 34 35 36 36 37 37 38 38 38 38 38 37 37 36 35 34 35 36 37 39 41 43 45 47 49 51 52 53 53 54 56 57 58 58 58 58 58 58 59 59 60 60 61 62 63 63 64 64 65 65 65 66 67 68 69 69
15 15 15 15 15 16 16 17 17 17 18 18 19 20 21 21 22 23 24 25 25 24 25 26 27 30 28 24 29 35 36 38 39 39 40 40 40 39 38 37 36 35 34 34 35 36 37 38 38 40 42 43 45 47 49 50 51 52 53 55 56 57 57 57 57 57 58 59 59 59 60 61 62 63 63 64 64 65 66 66 67 68 69 69 70 70
14 14 14 14 15 15 16 17 18 18 19 20 21 22 22 23 24 24 24 25 26 25 26 27 27 29 28 27 30 35 38 41 42 41 42 41 40 39 37 35 34 34 35 36 37 37 38 39 40 41 43 44 46 47 48 49 51 52 54 55 55 55 56 56 57 57 58 59 59 59 60 61 62 62 63 64 64 65 66 67 67 68 68 69 69 69
14 14 15 15 16 17 18 19 20 20 21 22 22 24 24 25 25 24 24 25 25 25 25 26 26 26 25 26 30 35 38 41 42 43 43 42 41 39 38 36 36 36 37 37 38 39 39 40 42 43 44 44 45 46 48 49 51 52 53 54 54 55 55 56 57 58 58 59 59 59 60 61 62 62 63 63 64 65 66 66 67 67 67 67 68 68
15 16 17 18 18 19 19 19 20 21 22 23 23 24 25 26 28 27 26 27 27 27 26 26 26 25 24 25 30 34 37 40 42 42 43 42 41 41 40 39 39 38 38 39 39 40 42 43 44 44 45 45 46 47 49 50 51 52 53 54 54 55 55 56 57 58 58 58 59 59 60 61 62 62 63 63 64 64 65 65 66 66 66 66 66 67
17 18 19 19 19 19 20 20 21 22 22 23 23 25 25 26 29 30 30 30 31 31 28 27 26 24 24 27 31 34 36 39 41 41 42 42 42 43 42 41 41 40 41 41 41 42 43 44 45 45 46 47 48 49 50 51 52 53 54 54 55 55 56 57 57 58 58 58 59 60 61 62 62 63 63 63 64 64 65 65 66 66 66 66 67 67
18 19 20 21 21 21 21 22 23 24 24 24 24 26 26 28 30 32 32 33 35 35 31 29 27 24 24 25 28 33 36 38 41 42 43 44 45 45 44 43 43 43 43 43 44 45 46 46 47 47 48 49 49 50 51 52 53 53 54 54 55 55 56 57 57 58 58 58 59 61 61 62 62 63 63 64 65 65 66 66 66 66 67 67 67 68
19 21 22 23 23 23 24 24 25 27 27 27 28 28 29 30 31 33 35 34 36 38 35 33 30 26 23 20 22 30 36 37 41 42 44 46 47 47 46 45 44 44 44 45 47 48 48 48 49 49 50 50 51 51 52 53 54 54 55 55 55 56 56 57 57 57 58 58 60 61 61 62 62 63 64 64 65 66 66 67 67 66 66 67 67 68
20 21 23 24 25 26 27 27 27 28 30 31 31 31 32 33 34 35 37 37 38 41 40 37 34 29 23 19 21 28 34 37 41 43 44 46 49 50 48 47 46 45 46 47 48 49 49 49 50 50 51 51 52 52 53 54 54 55 56 56 56 56 57 57 57 57 58 59 60 61 61 62 63 63 64 65 66 66 66 66 66 66 66 66 67 68
22 22 22 25 26 27 28 28 28 29 30 31 32 33 34 36 37 36 38 39 40 43 44 41 38 30 22 20 24 27 32 38 41 43 44 47 50 51 50 49 47 46 46 48 49 49 50 50 50 51 51 52 52 53 54 54 55 56 56 56 56 57 57 57 57 57 58 59 60 61 61 62 63 64 65 66 66 66 66 65 65 65 65 66 66 67
25 25 25 25 27 28 29 29 29 30 30 32 33 34 35 36 38 38 39 39 40 44 46 45 44 32 20 21 27 29 34 39 41 43 45 48 51 52 51 50 48 47 48 49 50 50 50 51 51 52 52 53 53 54 54 55 56 56 56 57 57 57 57 57 57 57 58 60 60 61 62 63 64 65 66 66 66 66 65 64 64 64 65 65 66 67
26 27 27 27 28 29 30 31 31 31 32 33 33 34 35 36 38 39 40 39 40 44 45 48 48 33 20 24 30 32 37 40 42 45 47 49 52 52 51 49 48 49 49 50 51 51 52 52 52 53 53 53 54 54 55 56 56 57 57 57 57 57 57 56 57 58 59 60 60 61 62 63 64 65 66 66 66 65 65 64 64 64 65 65 66 67
28 28 29 29 29 30 30 31 32 33 33 34 34 34 35 37 39 41 42 40 41 43 43 47 49 31 23 29 34 36 40 41 43 46 48 51 52 51 51 50 50 51 51 51 52 52 53 54 54 54 54 54 54 55 56 56 57 57 57 57 57 57 56 56 56 58 59 60 60 61 62 63 64 65 66 66 65 65 64 64 64 64 64 65 66 67
30 30 30 30 30 30 31 32 33 34 35 35 36 36 36 37 39 41 44 43 43 45 42 45 48 34 30 35 38 38 41 41 44 48 49 51 51 51 52 52 51 52 52 53 54 54 55 55 54 55 55 55 55 55 56 57 57 57 57 57 57 56 55 55 56 58 59 60 60 61 62 63 64 65 65 65 64 64 63 63 63 63 64 65 66 66
31 31 32 32 31 30 30 32 34 35 36 36 36 37 37 38 40 42 44 44 45 45 41 44 49 41 38 40 41 41 43 43 47 50 50 51 51 51 52 52 52 53 53 54 55 56 56 56 55 56 55 56 56 56 57 57 57 57 57 57 56 55 55 55 57 58 59 60 60 61 62 63 64 65 64 64 63 63 62 62 63 63 64 64 65 66
32 33 34 35 35 34 33 33 34 35 36 36 36 37 38 39 41 43 44 45 45 43 41 46 51 47 43 43 43 43 45 46 50 51 51 51 51 51 52 52 53 53 54 55 56 57 57 57 56 56 56 56 56 56 57 57 57 57 57 56 55 54 54 55 57 58 59 60 60 61 63 64 64 64 64 63 63 62 62 62 62 62 63 64 64 65
34 34 34 36 38 38 38 37 37 37 38 37 38 38 39 40 42 44 44 45 45 45 46 50 51 49 45 44 44 44 47 50 52 52 52 51 52 52 52 52 53 54 55 56 57 58 58 57 57 56 56 56 56 57 57 57 57 57 57 56 55 54 54 55 57 58 59 60 60 61 63 63 64 63 63 62 62 61 61 61 61 62 62 63 63 63
36 35 35 36 37 38 38 39 39 40 39 39 39 40 41 42 43 44 45 45 46 48 51 49 49 51 48 44 44 46 49 52 53 53 53 52 52 53 53 53 54 54 55 57 58 58 58 57 57 56 56 56 57 57 58 58 58 57 57 56 54 53 54 55 57 58 59 59 60 61 62 63 63 63 62 62 61 61 60 60 60 61 61 61 61 62
38 37 36 38 38 38 39 39 40 41 41 40 40 41 42 43 44 45 46 46 47 51 54 48 48 53 50 44 44 48 50 53 53 53 53 52 53 54 54 54 54 55 56 57 58 58 58 57 57 56 56 57 57 58 58 58 58 57 57 55 54 53 53 56 57 58 59 59 60 61 62 63 63 62 62 61 60 60 59 59 60 60 60 60 60 61
40 40 39 40 40 39 40 40 41 43 43 42 41 41 42 44 45 46 46 46 48 52 54 50 50 53 50 45 47 51 52 54 54 54 53 53 53 54 54 55 55 55 57 57 58 58 58 57 56 56 56 57 57 58 58 58 57 57 56 55 53 52 54 56 57 58 58 59 60 61 62 62 62 61 61 60 59 59 59 59 59 59 59 59 59 60
41 42 42 43 43 41 41 42 43 44 45 44 42 41 43 44 46 47 47 46 49 52 53 52 52 52 48 47 51 53 53 55 55 55 54 54 54 55 55 56 56 57 57 57 58 58 57 56 56 56 56 57 58 58 58 58 57 57 56 54 52 52 54 56 57 58 58 59 60 61 61 61 61 60 60 59 58 58 58 58 58 58 58 58 58 59
43 44 44 47 47 44 43 44 45 46 47 46 43 42 44 46 47 48 47 48 50 53 52 53 54 52 49 50 53 53 54 56 56 56 56 55 56 56 56 57 58 58 58 58 59 59 58 57 56 56 57 58 58 58 58 58 57 57 55 53 52 53 54 56 57 57 58 59 60 60 61 60 60 59 59 58 57 57 57 57 57 57 57 57 57 58
45 46 46 49 51 48 47 48 49 50 51 49 45 44 46 48 49 49 49 50 52 53 53 54 55 54 53 53 55 55 56 57 58 58 57 56 57 57 58 59 59 59 59 59 60 59 58 58 57 58 58 59 59 59 58 58 57 56 55 53 52 53 55 56 56 57 57 58 59 59 60 59 59 58 58 57 57 56 56 56 56 56 56 56 57 57
46 47 48 51 54 52 51 52 53 54 55 52 49 49 49 50 52 52 52 52 53 53 54 56 57 56 56 57 57 56 58 59 60 60 58 57 58 59 59 60 60 60 60 61 60 60 59 59 59 59 59 59 59 59 58 58 57 56 55 53 52 53 55 56 56 56 56 57 58 59 59 58 58 57 57 56 56 56 56 56 56 56 56 56 56 56
48 49 51 53 56 56 55 55 57 58 58 56 54 53 53 54 56 56 56 55 54 55 57 59 59 58 58 59 59 59 60 61 61 61 58 57 59 60 60 61 61 62 62 61 61 61 60 60 59 60 60 60 59 59 58 57 57 56 54 52 52 54 55 55 55 55 56 57 58 58 58 57 57 57 56 55 55 55 55 55 55 55 55 55 55 55
50 51 53 55 58 59 58 58 60 61 61 59 58 56 56 58 59 60 59 56 56 57 59 60 60 60 61 60 60 61 62 62 62 61 58 58 60 61 61 61 62 63 63 62 61 61 60 60 60 60 60 60 59 58 58 57 57 55 53 52 52 54 55 55 55 55 56 56 57 57 57 56 56 56 55 55 54 54 54 55 55 55 54 55 55 55
52 54 55 56 59 61 61 62 64 64 63 61 59 58 59 62 63 63 62 58 57 59 61 62 62 62 62 62 62 63 63 62 62 60 57 59 61 61 61 62 63 64 63 62 61 60 60 60 61 61 61 60 59 58 57 57 56 54 52 51 52 54 54 54 54 54 55 56 56 56 56 55 55 55 54 53 53 54 54 54 54 54 54 54 55 55
54 56 57 59 61 63 64 66 67 68 67 64 61 62 64 66 66 67 66 62 60 62 63 64 63 63 63 64 64 64 63 63 62 59 57 60 61 61 61 62 63 64 64 63 61 60 60 61 61 61 61 60 59 58 57 56 55 53 51 51 52 53 54 53 53 54 55 55 55 55 54 54 54 53 53 53 53 53 53 54 54 54 54 55 55 56
56 57 59 61 63 64 66 68 70 72 71 67 64 65 68 69 69 70 70 67 64 65 66 66 64 65 65 64 64 64 64 63 62 59 59 60 61 61 62 63 64 65 65 63 61 60 60 61 61 61 61 60 58 57 56 55 54 52 50 51 52 53 53 53 53 54 54 54 54 54 53 53 53 52 52 52 52 53 53 54 54 54 55 55 56 56
58 60 61 63 65 65 66 69 71 73 72 68 66 67 70 71 71 72 72 70 67 68 69 67 67 67 66 65 64 64 64 64 63 61 61 62 62 62 62 63 65 66 65 62 61 60 61 61 62 61 61 59 57 56 55 55 53 51 50 51 52 52 52 52 52 53 53 53 53 53 52 52 52 52 52 52 52 52 53 53 54 54 55 55 56 57
60 62 63 64 65 65 67 70 73 74 71 68 67 70 72 73 73 74 73 72 70 70 70 70 69 68 66 65 65 64 64 64 64 63 63 62 62 62 62 63 65 66 64 61 60 60 61 62 62 62 60 58 56 55 55 54 52 50 50 51 52 52 52 52 52 52 53 53 52 52 51 51 51 51 51 51 52 52 52 53 53 54 55 55 56 56
62 63 63 64 65 66 68 71 75 75 71 69 70 72 74 75 75 74 73 72 72 72 72 71 71 68 66 65 65 64 64 63 63 63 62 62 61 61 62 64 65 65 62 60 60 60 61 62 62 61 59 56 55 54 54 52 50 49 50 51 51 51 51 51 52 52 52 52 51 51 50 50 50 50 50 51 51 52 52 52 53 53 54 55 55 56
63 63 64 65 66 67 70 73 76 76 73 71 72 74 75 76 76 74 73 72 73 73 73 72 70 67 65 64 64 64 63 62 62 62 61 61 61 62 63 64 65 63 60 59 60 61 61 62 62 60 57 55 54 53 53 51 49 49 50 50 51 51 51 51 51 51 51 51 50 50 50 50 50 50 50 50 51 51 52 52 53 53 54 54 55 56
63 63 64 65 66 69 72 75 76 76 75 75 75 76 77 77 75 73 72 72 73 73 71 69 67 65 64 64 63 63 62 61 61 61 60 60 61 62 64 64 63 60 58 59 60 61 62 62 60 57 55 53 53 52 51 49 48 48 49 50 50 51 51 50 51 51 51 50 50 49 49 49 49 50 50 50 51 51 52 52 53 53 54 54 55 55
63 63 64 67 69 71 74 76 75 75 76 77 77 77 77 77 74 73 74 74 72 70 68 66 65 64 64 64 63 62 61 60 60 60 60 60 62 63 64 62 60 59 59 60 61 62 62 61 58 55 53 52 51 51 49 47 47 48 49 49 50 50 50 50 50 50 50 50 49 49 49 49 49 49 50 50 51 51 52 53 53 54 55 55 56 56
64 64 66 69 72 73 75 76 76 76 77 78 79 79 77 75 73 74 75 74 71 67 66 66 65 64 64 64 63 61 60 59 59 59 59 61 63 63 62 60 59 59 60 61 62 62 61 58 55 52 51 50 50 49 47 46 47 48 49 49 49 49 49 49 50 50 50 49 48 49 49 49 49 49 50 50 51 51 52 53 54 55 55 56 57 57
65 67 69 72 74 75 75 76 77 78 79 79 79 78 76 75 74 74 73 71 68 66 65 65 65 64 63 63 62 60 59 58 58 59 60 62 63 62 60 60 60 60 61 62 62 61 59 55 52 51 50 49 48 47 46 46 47 48 48 48 49 49 49 49 49 49 49 49 48 48 48 49 49 50 50 51 52 52 53 54 54 55 56 57 58 58
66 70 72 73 75 76 77 77 79 79 79 79 78 77 75 74 73 71 70 68 66 65 64 65 64 63 62 61 60 58 57 57 58 59 61 62 61 60 60 60 61 62 63 63 61 58 55 52 50 49 49 48 46 45 45 46 47 48 48 48 49 49 48 49 49 49 49 48 48 48 48 49 49 50 51 52 53 53 54 55 55 56 58 59 59 59
69 72 74 75 76 78 79 80 80 79 77 76 76 75 74 72 69 67 66 66 66 65 64 64 63 62 61 59 58 57 56 57 58 60 62 61 60 60 60 61 62 63 62 61 58 55 52 50 49 48 48 47 45 44 45 46 47 47 48 48 48 49 48 49 49 49 49 48 48 48 49 49 50 50 51 53 54 54 55 56 57 57 59 60 61 60
73 75 77 79 79 78 79 80 80 79 75 71 70 70 70 69 67 66 65 65 65 65 64 63 62 61 60 58 57 57 57 58 59 61 62 61 60 60 61 62 62 62 60 57 55 52 50 49 48 48 47 45 44 43 44 46 46 47 47 48 48 49 49 49 49 49 49 49 49 49 49 50 50 51 52 53 55 56 57 58 58 59 59 61 62 62
78 79 79 80 79 78 78 78 78 78 75 71 69 68 67 67 67 66 64 63 63 63 63 62 61 60 60 59 59 59 59 59 61 62 62 60 59 60 61 62 62 60 57 54 52 51 49 48 47 47 46 44 43 43 44 46 46 47 47 47 48 49 49 49 49 49 49 49 49 49 50 50 51 52 53 54 55 57 58 59 60 61 61 61 62 62
79 78 77 77 77 76 75 74 72 72 71 68 66 64 64 64 64 63 61 60 60 59 60 61 60 60 60 60 60 61 60 60 62 63 62 60 59 60 62 62 61 58 55 53 51 50 48 47 46 45 44 43 42 43 45 46 47 47 46 47 48 49 49 49 49 50 50 50 50 50 51 51 52 53 54 55 57 58 58 59 60 61 62 62 62 63
Wind_Direction
299 297 295 294 294 293 293 293 292 292 292 292 292 292 292 293 294 295 295 295 293 293 294 293 295 294 293 295 295 295 295 294 293 292 291 291 291 290 289 289 289 289 289 288 289 290 292 292 293 293 293 293 293 292 291 291 291 291 290 290 289 289 288 287 287 287 286 286 285 285 286 288 289 289 289 289 288 287 286 286 285 285 285 285 284 284
301 300 298 298 298 298 297 296 295 294 294 294 295 295 294 294 294 294 294 294 294 294 295 295 297 297 296 297 297 296 294 292 291 291 290 290 290 290 289 289 290 289 289 290 292 293 294 294 294 294 294 293 293 292 292 292 292 292 292 291 290 288 288 287 287 287 287 287 287 287 287 288 289 289 289 288 288 287 286 286 286 286 285 285 284 284
305 304 303 302 301 301 300 298 297 296 296 297 297 295 294 294 294 295 296 297 297 298 299 299 300 301 300 299 298 295 294 292 291 290 291 292 291 290 290 291 291 291 292 294 295 295 294 294 294 294 294 293 293 293 293 294 294 293 292 290 289 288 288 288 288 288 288 288 288 288 289 289 290 290 289 289 288 287 287 286 286 286 286 285 285 284
306 304 304 303 302 301 300 299 299 299 299 298 297 296 296 297 298 299 301 302 302 302 302 301 302 305 303 301 299 296 294 293 292 292 293 293 292 291 292 293 292 293 295 296 295 295 295 295 295 295 295 294 294 295 295 295 294 292 291 289 288 288 288 289 290 290 291 291 291 290 291 291 291 291 290 290 289 288 288 287 287 286 286 286 285 285
305 304 303 303 303 303 302 301 300 300 299 299 299 300 302 303 303 304 304 304 304 304 303 301 301 304 302 300 299 297 295 293 292 293 293 291 291 292 293 293 293 294 295 295 295 294 294 295 296 295 294 294 295 295 295 294 293 291 290 289 289 289 290 291 292 293 293 292 292 292 292 292 292 291 291 290 289 289 289 288 288 287 286 286 286 285
307 306 306 306 307 306 304 303 302 302 302 303 304 304 305 305 305 305 305 304 303 303 302 301 301 304 303 300 298 297 295 292 291 293 292 289 289 290 291 292 292 294 294 294 294 294 295 296 295 294 294 294 294 293 292 291 290 289 288 288 289 290 291 293 294 294 293 293 293 293 293 292 292 291 291 290 290 290 289 289 288 288 288 287 287 287
311 310 311 310 309 308 306 305 305 305 306 306 307 306 306 306 305 304 302 302 301 301 302 302 303 309 311 304 301 298 293 291 293 294 291 289 289 290 291 292 293 294 295 296 296 297 297 296 295 294 294 293 292 291 289 289 288 287 288 289 291 292 293 293 293 293 293 293 293 293 293 292 292 291 291 291 291 290 290 290 289 289 289 289 289 289
314 314 312 311 309 307 307 307 307 307 307 307 306 305 304 303 301 300 299 299 300 301 302 302 304 309 316 309 302 296 292 293 294 292 290 291 292 293 294 294 296 297 298 299 299 299 299 298 296 295 293 291 289 288 287 287 287 289 291 293 294 294 294 293 293 294 294 294 293 293 293 293 292 292 292 292 291 291 291 290 290 290 290 290 290 290
315 313 310 310 308 307 307 307 307 305 305 303 301 300 299 298 298 298 299 301 302 305 305 306 306 308 317 315 300 294 294 295 294 292 292 293 294 295 296 297 299 301 301 301 301 301 300 298 296 294 291 288 287 287 287 288 290 293 295 296 295 294 294 294 295 295 295 295 294 294 294 294 294 294 293 293 292 292 292 292 292 291 291 291 291 291
315 313 312 312 310 310 309 307 305 303 302 302 302 303 303 304 306 306 308 309 311 313 311 311 312 311 318 316 301 298 300 298 297 297 297 297 296 297 298 299 301 302 301 301 300 300 299 298 295 292 290 288 288 289 290 292 294 296 296 295 294 294 295 295 295 296 296 295 295 295 296 296 295 295 294 294 294 294 294 294 294 294 293 293 293 292
319 319 318 316 316 315 313 312 312 310 312 313 314 315 315 315 316 316 317 316 315 317 315 315 317 315 319 317 306 303 303 300 300 301 300 300 301 301 302 302 302 302 301 301 301 301 299 297 295 293 292 292 292 293 294 295 296 295 295 294 294 295 295 296 297 297 297 297 297 297 297 296 296 295 295 295 296 296 296 296 296 295 295 294 294 293
328 326 324 324 324 322 321 322 322 323 324 324 323 322 321 320 318 318 318 317 317 319 318 319 320 319 323 320 309 305 303 302 302 302 303 304 305 306 306 306 305 304 304 304 303 301 299 297 295 294 294 295 295 296 296 295 295 294 294 294 295 296 298 298 298 298 298 298 298 297 297 296 296 296 296 296 296 296 296 296 296 296 295 294 294 293
334 331 329 330 329 328 328 327 326 327 327 327 327 325 324 322 319 320 320 317 318 320 321 322 323 326 327 320 310 305 302 302 303 304 305 307 308 309 309 309 308 307 306 305 303 302 301 300 299 299 299 298 298 297 296 295 295 295 296 297 299 300 300 300 299 299 298 298 297 297 297 297 297 297 297 297 297 297 297 296 296 295 295 294 293 293
336 334 333 332 333 332 331 330 328 327 327 329 329 326 326 324 321 322 322 320 320 321 324 326 327 332 331 320 310 304 302 302 304 306 307 309 310 310 310 310 310 309 308 306 305 304 304 303 303 303 302 301 299 298 298 297 298 299 300 301 301 301 301 300 299 299 298 297 297 297 298 298 298 297 297 297 297 297 297 296 296 296 295 294 293 292
340 338 336 336 337 336 335 333 330 328 328 330 329 327 327 325 323 323 323 323 322 321 325 326 328 336 335 321 309 302 303 305 306 307 309 311 311 310 310 311 310 310 309 308 306 305 305 305 304 304 303 302 301 301 301 301 301 301 302 302 301 301 300 300 299 299 298 298 298 299 299 298 298 298 298 298 298 298 298 298 298 297 296 294 293 292
347 342 339 339 339 338 338 335 332 330 329 330 330 328 327 325 323 322 322 323 321 319 322 323 326 337 335 321 308 302 305 308 306 308 311 311 311 310 311 312 312 311 310 308 306 305 305 305 304 304 303 303 303 303 303 303 302 302 302 301 301 300 300 300 299 299 299 299 299 299 299 299 299 299 299 300 300 301 300 300 298 297 295 294 294 293
350 345 341 340 338 337 337 335 333 330 328 329 330 328 327 325 323 321 320 321 319 317 318 319 325 338 338 323 308 304 306 307 306 309 313 312 311 311 312 313 313 312 310 308 307 307 306 306 305 304 303 303 303 303 303 303 303 302 302 301 300 300 301 300 300 299 299 299 299 299 299 299 299 300 301 302 302 302 301 299 298 297 296 295 294 294
350 347 343 339 337 337 335 334 333 329 327 328 328 327 325 322 321 320 318 319 318 315 316 317 322 337 342 325 311 307 306 306 308 313 314 312 310 311 313 313 313 312 310 308 307 307 306 305 304 303 303 303 303 303 303 303 303 302 301 301 301 302 302 301 300 299 298 299 299 299 299 300 300 302 303 303 303 302 300 299 298 297 296 296 296 296
347 347 345 339 337 337 335 334 332 328 327 326 326 326 323 320 319 318 316 318 317 314 315 315 319 334 344 324 315 312 308 309 314 315 314 311 310 312 314 314 313 312 308 307 307 306 305 304 304 303 303 302 302 302 303 303 302 302 301 302 302 302 302 300 299 298 298 299 300 300 300 301 302 303 304 303 302 301 300 298 297 297 296 297 297 298
345 344 344 340 338 336 335 333 331 329 327 326 326 325 323 320 318 316 315 317 315 313 314 313 316 330 343 326 321 317 312 315 317 315 313 310 310 313 315 315 313 310 307 306 307 306 306 305 304 303 302 302 302 302 302 302 302 302 302 303 303 302 300 299 297 298 299 300 301 301 302 303 304 304 304 303 302 301 300 299 298 298 298 298 299 300
345 343 342 341 339 337 335 332 329 329 327 326 327 325 323 321 318 316 315 315 314 312 313 312 314 327 345 331 324 319 316 318 317 313 311 310 312 316 316 315 312 308 307 307 307 306 306 305 304 303 303 303 302 302 302 302 302 302 302 302 302 300 299 298 298 299 300 301 302 302 303 304 304 304 304 303 302 301 300 299 299 299 299 300 301 302
343 343 342 342 340 339 337 332 329 328 326 326 326 325 324 321 319 317 314 315 313 310 312 312 310 326 349 331 321 318 317 317 314 311 310 311 315 317 316 313 311 309 308 307 307 306 305 305 305 304 303 303 303 302 302 302 302 302 302 302 301 300 299 299 299 300 302 303 303 303 304 305 305 304 304 303 302 301 300 300 300 300 301 302 303 304
341 340 339 339 339 340 338 333 331 329 326 326 326 324 323 321 320 317 314 315 312 309 314 310 305 323 343 325 316 318 316 314 310 308 309 313 317 316 314 313 311 309 308 306 306 306 306 306 306 305 304 303 303 302 302 302 302 302 302 301 301 300 299 299 300 302 303 304 304 304 305 305 305 305 304 303 302 301 301 301 301 301 302 303 304 305
337 336 335 335 336 338 336 332 330 328 327 327 326 324 322 320 319 316 315 314 310 311 317 307 303 322 333 319 315 317 313 310 307 307 311 315 316 315 314 313 311 308 307 306 306 307 307 307 306 305 304 303 302 302 302 302 302 301 301 301 301 301 300 300 301 303 304 304 304 304 305 305 305 305 304 303 302 302 301 302 302 302 303 304 306 307
333 333 332 331 332 334 333 331 329 328 328 328 327 324 322 319 318 316 314 312 311 314 312 302 305 321 324 317 317 316 309 306 305 309 314 314 314 315 314 313 310 308 307 306 306 307 308 307 305 304 303 302 302 302 302 302 301 301 302 302 302 301 300 301 302 304 304 304 304 305 305 305 305 305 304 303 302 302 302 302 303 303 304 305 306 308
330 330 330 328 329 331 331 329 328 327 328 328 327 325 322 320 317 315 314 313 314 312 304 303 312 318 317 319 319 312 306 304 307 311 314 313 314 315 314 312 310 308 307 306 306 307 307 306 305 303 303 302 302 302 302 302 302 302 302 303 302 301 300 302 303 304 304 304 305 305 306 306 305 305 304 303 303 303 303 303 303 304 305 306 307 308
327 328 327 325 326 328 327 326 324 324 326 327 326 326 324 321 317 316 316 315 315 308 303 309 316 313 315 323 318 307 303 305 308 311 312 313 315 315 313 311 310 309 307 306 306 306 306 305 305 304 303 303 303 303 303 302 302 303 303 303 302 301 301 302 304 304 304 304 305 306 306 306 305 305 304 304 303 303 303 304 304 305 305 306 307 309
324 326 325 322 324 326 324 323 320 320 323 324 324 325 324 320 318 318 317 316 314 307 305 314 315 310 317 324 313 304 305 306 308 308 310 313 314 314 313 311 309 308 306 306 306 306 305 305 305 304 304 304 304 303 303 303 303 304 304 303 301 301 301 303 304 304 305 305 306 306 306 306 306 305 305 304 304 304 304 304 305 305 306 307 308 309
321 323 322 320 322 324 323 321 318 319 321 321 323 324 321 319 319 319 317 316 313 308 309 314 311 310 319 319 308 305 307 307 307 307 308 311 312 313 312 310 308 307 306 306 306 305 306 306 305 304 304 304 304 304 304 304 304 304 304 303 301 300 302 303 304 304 305 306 306 307 307 307 306 306 305 305 305 305 305 305 305 306 306 307 308 310
319 320 320 318 319 322 322 319 317 318 318 320 323 322 318 318 319 318 316 315 312 309 312 312 309 312 317 313 307 308 307 306 306 306 307 309 311 311 311 309 307 306 306 307 306 306 306 306 305 305 305 305 305 305 305 304 304 304 304 302 301 301 302 304 304 305 305 306 307 307 307 307 306 306 306 306 306 306 306 306 306 307 307 308 309 311
316 317 317 316 317 320 320 316 316 316 316 319 323 321 317 317 318 316 315 314 312 311 313 311 309 312 314 310 308 309 307 306 306 306 306 308 310 310 310 308 307 306 307 306 306 307 307 307 306 306 306 306 306 306 305 305 305 305 304 302 301 301 303 304 304 305 306 307 308 308 307 307 307 307 307 307 307 306 306 306 307 307 308 308 310 312
314 314 315 313 314 318 318 315 315 315 314 318 322 321 318 316 315 314 313 313 313 313 312 311 311 312 312 309 309 310 308 307 306 305 306 308 309 309 309 308 308 307 306 306 307 308 308 307 308 307 307 307 307 307 306 305 305 305 304 302 301 302 304 304 305 306 307 308 308 308 308 307 307 308 308 307 307 307 307 307 307 308 308 309 310 313
312 311 312 311 312 315 316 314 314 313 314 318 320 320 319 316 313 312 313 313 314 313 313 312 311 312 311 309 309 309 308 307 306 305 305 307 307 307 308 308 308 307 306 306 307 308 308 308 308 308 308 308 308 307 306 305 306 305 303 301 301 303 304 305 306 307 308 309 309 309 308 308 308 308 308 308 308 308 308 308 308 308 309 309 311 313
310 309 309 309 309 312 313 312 311 311 313 317 319 319 318 315 313 312 313 314 314 313 313 312 311 311 310 309 309 308 306 307 307 306 305 305 305 306 307 309 309 307 307 306 307 307 307 308 308 308 309 309 308 307 306 305 306 305 303 301 302 304 305 305 307 308 309 310 309 309 309 308 309 309 309 309 309 309 309 309 309 309 309 309 311 313
308 307 307 307 307 309 311 310 308 309 312 314 316 318 316 313 311 311 312 313 313 313 312 310 310 310 309 309 307 306 305 306 307 306 305 304 304 305 308 309 308 308 307 306 306 306 307 308 308 308 309 309 308 306 305 305 305 304 302 301 303 304 305 306 308 309 310 310 309 309 309 309 309 310 310 310 310 310 310 310 310 310 309 310 311 313
306 305 305 305 306 307 308 307 305 306 309 312 313 314 313 311 310 311 311 311 311 311 310 308 309 309 309 308 306 304 304 305 307 307 304 302 304 306 307 308 308 307 306 305 305 306 307 308 308 308 309 308 307 305 304 304 304 303 301 301 303 305 305 307 308 309 310 310 309 309 309 309 310 310 311 311 311 311 311 310 310 310 310 310 311 312
304 303 303 303 304 305 306 305 304 305 307 310 312 313 311 310 311 311 311 310 311 310 308 307 309 309 308 307 305 304 303 304 306 306 302 301 304 305 306 307 307 307 306 306 305 306 307 307 307 308 308 308 306 304 304 304 303 302 301 302 304 305 306 308 309 309 310 309 309 309 310 310 311 312 312 312 312 312 312 312 311 311 311 310 311 312
302 301 301 300 302 303 304 303 302 303 306 310 312 311 309 309 310 311 310 310 311 309 307 308 309 308 307 306 304 303 303 303 306 305 301 301 303 304 305 307 308 308 307 306 305 306 306 306 307 307 308 307 305 303 303 303 302 301 301 302 304 305 307 308 309 310 310 309 309 310 310 311 312 313 313 313 313 313 313 313 313 312 312 311 312 313
301 299 298 298 300 301 301 300 300 301 305 308 309 307 307 308 309 309 309 309 309 307 307 308 309 308 307 305 304 303 303 304 305 304 302 301 302 303 306 308 308 308 307 305 305 305 305 306 307 307 307 306 304 303 302 302 301 300 301 303 304 306 307 309 309 310 310 310 310 310 311 312 314 314 315 314 314 314 314 314 314 314 313 313 313 313
299 298 297 297 298 298 297 296 297 299 303 306 305 305 306 307 308 308 308 308 307 306 307 309 309 308 306 304 303 303 303 304 304 303 302 301 302 304 306 307 308 307 306 304 304 304 305 306 307 307 307 305 303 302 302 301 300 300 301 303 305 307 308 309 309 309 310 310 310 311 312 313 315 315 316 315 315 315 315 316 315 315 314 314 314 314
298 296 296 296 296 295 294 294 295 298 302 304 303 304 306 307 307 308 308 307 307 307 308 309 308 306 305 304 303 303 303 303 302 301 301 301 302 304 306 307 307 306 305 304 303 304 305 306 306 306 305 303 301 301 301 300 299 300 302 304 306 307 308 309 309 309 309 309 310 311 313 314 316 317 317 317 316 316 316 317 316 316 316 315 315 315
297 296 295 295 294 293 293 293 295 298 301 302 303 305 306 306 307 307 306 306 306 307 307 307 305 304 303 302 302 302 302 301 300 300 300 301 303 304 305 307 307 305 303 303 303 304 305 306 306 305 303 301 300 300 300 299 299 301 303 305 306 307 308 309 309 309 309 310 311 312 314 315 317 317 318 318 317 317 317 317 317 317 317 317 317 317
296 294 293 293 292 292 292 294 296 299 301 302 304 305 305 305 306 306 304 305 305 305 304 304 303 302 302 301 302 302 301 300 299 299 300 301 303 305 306 307 306 304 302 302 303 304 305 305 305 304 301 300 300 299 299 299 300 302 304 305 306 307 308 309 309 309 309 310 311 313 314 316 317 318 319 319 318 318 318 318 319 318 318 318 318 318
294 292 292 291 291 291 292 294 296 299 302 303 304 304 304 305 306 305 304 304 304 303 302 302 302 302 301 301 302 302 301 299 298 299 300 302 304 305 306 306 304 302 302 302 303 304 305 305 304 302 300 299 299 299 299 299 301 303 304 306 307 307 308 308 308 309 310 311 312 313 315 316 318 319 320 320 319 319 319 319 320 319 319 320 319 319
292 290 290 290 290 290 292 295 297 299 301 302 303 303 304 304 304 304 303 303 303 303 302 302 302 302 301 302 302 302 300 298 298 299 301 303 304 306 305 304 302 301 302 303 304 305 305 304 302 300 299 299 299 299 299 300 302 303 304 306 307 307 308 308 308 309 310 311 312 314 315 317 318 319 320 321 320 320 320 320 321 320 320 320 320 320
289 289 289 289 289 291 293 295 297 299 300 302 303 303 304 303 303 302 302 302 302 302 301 301 302 302 302 302 302 301 299 297 297 299 301 303 305 305 304 302 302 302 303 304 305 305 304 303 301 299 299 299 299 299 299 301 302 304 305 306 307 307 307 307 308 309 310 311 313 314 315 317 318 320 321 322 321 321 321 321 322 321 321 321 321 320
289 289 289 290 291 292 294 295 296 297 299 301 301 301 301 301 301 301 300 300 300 300 300 301 301 302 302 302 300 298 297 296 297 300 302 304 305 304 303 302 302 303 304 305 304 304 303 301 300 299 299 299 299 299 300 301 303 304 305 306 306 306 306 307 308 309 310 312 313 314 315 317 319 320 321 322 322 323 322 322 323 322 322 321 321 320
289 289 290 291 292 294 296 297 297 297 299 301 301 300 300 299 298 298 298 299 299 299 300 301 301 302 302 301 299 296 295 296 298 301 304 305 304 303 302 303 304 305 305 304 303 303 301 300 299 299 299 299 299 299 300 302 304 305 305 306 306 306 306 307 308 309 310 312 313 314 315 317 318 320 322 323 323 324 324 323 323 323 322 321 321 320
291 292 292 293 295 296 297 298 297 297 298 297 297 296 297 297 297 297 298 298 299 300 301 301 301 302 301 299 297 295 295 296 299 302 305 304 303 302 302 303 304 305 305 303 302 301 300 299 298 299 299 298 298 299 301 303 305 305 305 305 305 305 305 306 307 309 310 312 313 314 315 317 318 320 322 323 324 324 324 324 324 323 323 321 321 320
294 296 297 298 298 298 298 297 297 298 297 296 295 294 296 297 298 298 298 298 299 300 300 301 301 301 300 298 297 295 296 297 300 303 304 303 302 301 302 303 305 305 303 302 301 300 299 298 298 298 298 298 299 301 303 304 305 306 305 304 304 304 305 306 307 308 310 311 312 313 314 316 318 320 321 323 324 325 325 324 324 323 323 322 321 320
298 299 299 299 299 299 299 299 299 299 300 299 298 297 297 297 296 297 297 298 298 299 300 301 301 300 299 298 297 296 296 297 299 302 303 302 300 300 301 303 304 303 302 301 300 299 298 297 298 298 298 299 300 302 304 305 306 306 304 303 303 303 304 306 307 308 309 311 312 313 314 316 318 319 321 322 324 324 325 325 324 323 322 321 321 320
Height
5759 5758 5757 5756 5755 5754 5753 5751 5750 5749 5748 5747 5746 5744 5743 5742 5741 5740 5739 5738 5736 5735 5734 5733 5732 5731 5729 5728 5726 5725 5723 5721 5719 5718 5716 5715 5713 5712 5710 5709 5708 5707 5706 5705 5704 5703 5702 5701 5700 5698 5697 5696 5694 5692 5691 5689 5687 5686 5685 5683 5682 5680 5678 5676 5674 5673 5671 5670 5668 5666 5664 5661 5659 5657 5655 5652 5649 5646 5644 5641 5639 5637 5635 5633 5631 5629
5757 5756 5755 5754 5753 5752 5751 5750 5748 5747 5746 5745 5744 5742 5741 5740 5739 5738 5737 5735 5734 5732 5731 5730 5729 5727 5725 5725 5723 5721 5719 5717 5716 5714 5712 5711 5710 5708 5707 5706 5704 5703 5702 5701 5701 5699 5698 5697 5695 5694 5692 5691 5689 5687 5685 5684 5682 5681 5679 5677 5675 5674 5672 5670 5668 5667 5665 5663 5662 5660 5657 5655 5653 5650 5647 5644 5641 5638 5636 5633 5631 5629 5627 5625 5622 5620
5755 5754 5753 5752 5751 5750 5749 5748 5746 5745 5744 5743 5742 5740 5739 5738 5736 5735 5734 5732 5731 5729 5728 5726 5726 5724 5722 5721 5720 5718 5716 5714 5712 5711 5709 5708 5706 5704 5703 5702 5701 5700 5699 5698 5697 5696 5694 5692 5691 5689 5688 5686 5684 5682 5680 5679 5677 5675 5672 5670 5668 5667 5665 5663 5662 5660 5659 5657 5655 5652 5650 5648 5645 5643 5640 5637 5634 5630 5628 5626 5624 5621 5618 5616 5614 5611
5754 5753 5751 5750 5749 5748 5747 5746 5744 5743 5742 5741 5739 5738 5737 5735 5734 5732 5731 5729 5728 5726 5725 5723 5722 5722 5719 5716 5715 5714 5712 5710 5708 5708 5707 5704 5702 5700 5699 5698 5697 5696 5695 5694 5693 5691 5689 5688 5686 5685 5683 5681 5679 5677 5675 5673 5671 5668 5666 5664 5661 5660 5658 5657 5655 5654 5651 5649 5647 5645 5642 5640 5638 5635 5632 5629 5626 5622 5620 5619 5616 5613 5610 5607 5605 5602
5752 5751 5750 5749 5747 5746 5745 5744 5742 5741 5740 5738 5737 5735 5734 5732 5731 5729 5728 5726 5725 5723 5722 5719 5719 5720 5717 5713 5711 5709 5708 5706 5704 5704 5703 5700 5698 5697 5695 5694 5692 5691 5690 5689 5688 5686 5685 5683 5681 5680 5677 5675 5673 5671 5669 5667 5664 5661 5659 5657 5655 5653 5652 5650 5648 5646 5644 5641 5639 5637 5635 5632 5629 5627 5624 5621 5617 5614 5612 5610 5607 5604 5602 5599 5596 5594
5751 5749 5748 5747 5745 5744 5743 5741 5740 5739 5737 5736 5734 5733 5731 5730 5728 5727 5725 5724 5722 5721 5719 5716 5715 5716 5714 5710 5707 5705 5704 5702 5700 5700 5698 5696 5694 5693 5692 5689 5688 5687 5686 5684 5683 5681 5680 5678 5676 5674 5672 5670 5668 5665 5663 5660 5658 5655 5653 5651 5649 5648 5646 5644 5641 5639 5636 5634 5631 5629 5627 5624 5621 5619 5615 5612 5609 5606 5604 5601 5598 5596 5593 5589 5587 5584
5749 5748 5746 5745 5744 5742 5741 5739 5738 5736 5735 5733 5732 5730 5729 5727 5726 5724 5723 5721 5720 5718 5716 5714 5711 5711 5711 5707 5702 5700 5698 5697 5696 5695 5693 5691 5690 5689 5687 5685 5683 5682 5681 5679 5678 5676 5675 5673 5671 5668 5666 5664 5661 5659 5656 5654 5651 5649 5647 5645 5644 5641 5639 5637 5634 5631 5629 5626 5624 5621 5619 5616 5613 5610 5607 5604 5601 5598 5595 5592 5589 5586 5584 5581 5577 5574
5747 5746 5745 5743 5742 5740 5739 5737 5736 5734 5732 5731 5729 5728 5726 5725 5723 5722 5720 5718 5717 5715 5713 5712 5708 5707 5707 5705 5699 5696 5694 5693 5692 5691 5689 5687 5685 5684 5683 5681 5679 5678 5676 5675 5672 5671 5669 5667 5665 5663 5660 5657 5655 5652 5649 5647 5645 5643 5641 5639 5637 5634 5631 5629 5626 5624 5621 5619 5616 5613 5610 5607 5604 5602 5599 5596 5593 5589 5586 5584 5581 5578 5575 5572 5569 5565
5746 5744 5743 5741 5740 5738 5736 5735 5733 5732 5730 5729 5727 5726 5724 5723 5721 5719 5717 5716 5714 5712 5710 5709 5706 5704 5704 5702 5696 5692 5690 5688 5687 5686 5685 5683 5681 5680 5678 5677 5675 5673 5672 5669 5667 5665 5664 5661 5659 5657 5654 5651 5648 5645 5643 5641 5638 5636 5634 5632 5629 5627 5624 5621 5619 5616 5613 5611 5608 5605 5602 5599 5596 5593 5590 5588 5584 5581 5578 5575 5572 5569 5565 5563 5560 5556
5744 5742 5741 5739 5738 5736 5734 5733 5732 5730 5728 5727 5725 5723 5721 5720 5718 5716 5714 5712 5711 5709 5707 5705 5703 5700 5700 5698 5692 5688 5686 5684 5682 5681 5680 5678 5676 5675 5674 5673 5671 5669 5667 5664 5662 5660 5658 5656 5654 5651 5648 5645 5642 5640 5637 5635 5632 5630 5627 5624 5622 5619 5617 5614 5611 5608 5605 5602 5599 5596 5593 5590 5587 5584 5582 5579 5576 5572 5569 5566 5562 5559 5556 5553 5550 5547
5742 5740 5739 5737 5736 5734 5733 5731 5730 5728 5726 5724 5722 5720 5718 5716 5715 5713 5711 5709 5707 5706 5704 5702 5700 5697 5696 5694 5688 5684 5681 5678 5677 5676 5674 5673 5671 5670 5669 5668 5666 5664 5661 5660 5658 5655 5653 5650 5648 5645 5642 5639 5636 5634 5631 5629 5626 5623 5621 5618 5615 5613 5610 5607 5604 5601 5597 5594 5591 5588 5585 5582 5579 5576 5573 5570 5567 5563 5559 5556 5553 5549 5546 5542 5539 5536
5740 5739 5737 5736 5734 5732 5731 5729 5727 5725 5723 5721 5719 5717 5715 5713 5711 5710 5708 5706 5704 5703 5701 5699 5697 5694 5692 5689 5684 5680 5676 5673 5672 5670 5669 5668 5666 5665 5664 5662 5661 5659 5656 5654 5652 5649 5647 5644 5641 5639 5636 5634 5631 5629 5626 5623 5621 5618 5615 5612 5609 5606 5603 5599 5596 5593 5590 5586 5583 5580 5577 5574 5571 5568 5565 5562 5558 5555 5551 5547 5544 5540 5537 5533 5530 5526
5738 5737 5735 5734 5732 5730 5728 5726 5724 5722 5721 5719 5716 5714 5712 5710 5708 5707 5705 5703 5701 5700 5699 5696 5694 5692 5690 5686 5681 5676 5672 5669 5667 5665 5664 5663 5661 5660 5659 5657 5655 5653 5651 5649 5646 5643 5640 5638 5635 5633 5630 5628 5626 5623 5621 5618 5615 5611 5608 5605 5601 5598 5595 5592 5589 5585 5582 5579 5576 5573 5570 5567 5563 5560 5557 5553 5550 5546 5543 5539 5535 5532 5528 5524 5521 5517
5737 5735 5733 5732 5730 5728 5726 5724 5722 5720 5718 5716 5714 5712 5710 5707 5704 5703 5702 5700 5698 5696 5695 5693 5691 5689 5686 5683 5678 5673 5669 5666 5664 5661 5659 5658 5656 5654 5653 5652 5650 5648 5646 5643 5640 5637 5634 5632 5629 5626 5624 5621 5619 5616 5614 5610 5607 5604 5600 5597 5593 5590 5587 5584 5581 5578 5575 5572 5568 5565 5562 5558 5555 5552 5549 5545 5542 5538 5534 5530 5526 5523 5519 5515 5512 5508
5735 5734 5732 5730 5728 5726 5724 5722 5720 5718 5717 5715 5712 5710 5708 5705 5701 5699 5697 5695 5693 5692 5691 5690 5688 5686 5683 5679 5673 5669 5666 5663 5660 5658 5655 5653 5651 5649 5648 5646 5644 5642 5640 5637 5634 5632 5629 5626 5623 5620 5617 5615 5612 5609 5606 5602 5599 5596 5593 5590 5586 5583 5580 5577 5574 5571 5567 5564 5560 5557 5553 5550 5547 5543 5540 5537 5533 5529 5525 5521 5517 5513 5509 5506 5502 5499
5734 5732 5730 5728 5727 5725 5723 5721 5719 5716 5714 5713 5710 5708 5705 5703 5700 5696 5694 5692 5688 5686 5687 5686 5685 5684 5681 5676 5670 5665 5663 5660 5656 5654 5652 5648 5646 5644 5643 5641 5639 5637 5634 5631 5628 5625 5623 5620 5617 5614 5611 5608 5605 5601 5598 5595 5592 5589 5586 5583 5580 5577 5574 5570 5567 5563 5559 5556 5552 5549 5545 5542 5538 5535 5532 5528 5524 5520 5516 5512 5508 5504 5500 5497 5493 5489
5733 5731 5729 5727 5725 5723 5721 5719 5717 5714 5711 5710 5708 5705 5702 5700 5697 5694 5690 5689 5686 5682 5681 5681 5680 5680 5678 5673 5668 5663 5659 5656 5653 5650 5648 5645 5641 5639 5638 5636 5634 5631 5628 5625 5622 5619 5616 5613 5610 5607 5604 5601 5598 5595 5591 5588 5585 5582 5579 5576 5573 5570 5566 5562 5559 5555 5552 5548 5545 5541 5538 5534 5530 5526 5522 5519 5514 5511 5507 5503 5499 5495 5491 5487 5483 5480
5733 5730 5728 5725 5723 5721 5719 5717 5715 5712 5709 5707 5705 5702 5699 5697 5694 5691 5687 5685 5682 5677 5675 5675 5675 5675 5674 5669 5665 5661 5656 5652 5649 5647 5644 5640 5636 5634 5633 5631 5628 5626 5622 5619 5616 5613 5610 5607 5604 5601 5598 5595 5592 5588 5585 5582 5578 5575 5572 5568 5565 5561 5557 5554 5550 5547 5544 5541 5537 5533 5529 5525 5522 5518 5513 5509 5506 5502 5498 5493 5489 5485 5482 5478 5473 5470
5731 5730 5727 5724 5722 5720 5717 5715 5713 5710 5707 5705 5702 5700 5697 5693 5690 5688 5685 5681 5678 5673 5669 5668 5669 5671 5670 5665 5661 5657 5652 5648 5645 5642 5639 5635 5631 5629 5627 5625 5623 5620 5617 5614 5611 5608 5605 5601 5598 5595 5592 5589 5585 5582 5578 5575 5572 5568 5565 5561 5557 5553 5550 5546 5542 5539 5536 5533 5529 5525 5521 5517 5513 5508 5504 5500 5497 5493 5489 5485 5481 5476 5472 5468 5464 5460
5729 5728 5726 5723 5720 5718 5715 5713 5710 5708 5705 5702 5700 5697 5694 5690 5687 5684 5682 5679 5675 5669 5665 5661 5662 5666 5666 5661 5657 5653 5648 5644 5640 5637 5633 5629 5626 5623 5621 5620 5617 5614 5611 5608 5604 5601 5598 5595 5592 5589 5585 5582 5578 5575 5571 5568 5564 5561 5557 5553 5550 5546 5542 5538 5535 5532 5528 5525 5521 5517 5512 5508 5504 5499 5495 5491 5487 5483 5479 5475 5471 5467 5463 5459 5455 5450
5728 5725 5723 5721 5718 5716 5713 5710 5707 5705 5703 5700 5697 5694 5691 5687 5683 5680 5678 5676 5672 5667 5663 5657 5655 5660 5661 5656 5652 5648 5644 5640 5635 5631 5628 5624 5620 5618 5616 5614 5611 5608 5604 5601 5597 5594 5591 5588 5585 5582 5578 5574 5571 5568 5564 5561 5557 5553 5550 5546 5542 5538 5535 5531 5527 5524 5520 5516 5512 5508 5504 5500 5495 5491 5487 5482 5478 5474 5470 5466 5462 5458 5453 5449 5445 5440
5725 5723 5721 5719 5716 5714 5711 5708 5705 5702 5700 5697 5694 5692 5688 5684 5680 5675 5672 5671 5668 5664 5661 5655 5650 5654 5657 5652 5647 5644 5639 5635 5631 5626 5622 5619 5615 5613 5610 5607 5604 5601 5598 5594 5591 5588 5585 5582 5578 5574 5571 5567 5564 5561 5557 5553 5549 5546 5542 5539 5535 5530 5526 5522 5519 5515 5511 5507 5503 5500 5495 5491 5487 5482 5478 5473 5469 5465 5461 5457 5453 5448 5444 5440 5435 5431
5723 5720 5718 5716 5714 5711 5708 5705 5702 5699 5696 5694 5691 5688 5685 5681 5677 5672 5667 5665 5662 5659 5658 5653 5645 5648 5651 5647 5642 5639 5634 5630 5626 5621 5617 5613 5610 5607 5603 5600 5597 5594 5591 5588 5584 5581 5578 5574 5571 5567 5563 5560 5557 5553 5549 5546 5542 5538 5534 5531 5527 5522 5518 5514 5511 5507 5503 5499 5495 5491 5487 5483 5478 5474 5470 5465 5460 5456 5452 5448 5444 5439 5435 5430 5426 5421
5720 5717 5715 5713 5712 5710 5707 5703 5699 5696 5693 5691 5688 5685 5681 5677 5673 5669 5664 5661 5657 5654 5653 5647 5639 5641 5644 5640 5636 5632 5628 5624 5619 5615 5612 5609 5605 5602 5598 5594 5591 5587 5584 5581 5577 5574 5570 5567 5563 5560 5556 5553 5549 5546 5542 5538 5534 5530 5526 5523 5519 5514 5510 5506 5503 5499 5495 5491 5487 5483 5479 5474 5470 5466 5461 5457 5452 5448 5443 5439 5435 5430 5426 5421 5417 5412
5717 5714 5711 5708 5706 5705 5702 5700 5696 5693 5690 5687 5685 5681 5677 5674 5669 5664 5660 5656 5652 5650 5647 5640 5634 5636 5637 5633 5630 5626 5621 5616 5613 5610 5607 5604 5600 5596 5592 5588 5585 5581 5578 5574 5570 5567 5563 5560 5556 5553 5549 5546 5542 5538 5534 5530 5527 5522 5518 5514 5510 5506 5502 5499 5495 5491 5487 5483 5479 5475 5471 5466 5462 5457 5453 5449 5444 5440 5435 5431 5426 5422 5418 5413 5408 5403
5714 5711 5708 5704 5701 5698 5696 5693 5690 5688 5686 5683 5681 5677 5673 5670 5665 5660 5656 5652 5648 5644 5640 5635 5631 5630 5631 5629 5625 5619 5613 5609 5607 5604 5601 5598 5594 5590 5586 5582 5578 5575 5571 5567 5563 5560 5557 5553 5550 5546 5542 5538 5534 5530 5526 5523 5519 5514 5510 5506 5502 5498 5495 5491 5487 5484 5479 5475 5471 5467 5462 5458 5454 5449 5445 5441 5436 5432 5427 5423 5419 5414 5410 5405 5400 5395
5710 5708 5706 5702 5699 5696 5692 5689 5686 5683 5681 5679 5676 5673 5669 5665 5660 5656 5652 5648 5644 5637 5632 5633 5629 5623 5625 5626 5619 5612 5607 5603 5600 5598 5594 5591 5588 5584 5580 5576 5572 5569 5565 5561 5558 5554 5550 5546 5543 5539 5534 5530 5526 5522 5518 5514 5510 5506 5502 5498 5494 5491 5487 5483 5479 5476 5472 5468 5463 5459 5454 5450 5446 5441 5437 5432 5428 5424 5419 5415 5410 5406 5401 5397 5392 5388
5706 5705 5702 5698 5696 5693 5689 5686 5682 5679 5677 5675 5672 5669 5665 5660 5656 5652 5647 5643 5639 5630 5626 5630 5626 5617 5618 5621 5613 5605 5602 5598 5595 5592 5588 5585 5582 5578 5574 5570 5567 5563 5559 5555 5552 5548 5544 5539 5535 5531 5527 5523 5519 5515 5511 5507 5503 5498 5494 5490 5486 5483 5479 5475 5471 5468 5464 5459 5455 5451 5446 5442 5437 5433 5429 5424 5420 5415 5411 5406 5402 5398 5393 5389 5384 5380
5701 5700 5698 5694 5692 5690 5686 5682 5678 5675 5672 5670 5668 5665 5660 5656 5651 5647 5643 5639 5634 5626 5622 5624 5620 5614 5614 5613 5605 5599 5595 5592 5589 5586 5582 5579 5576 5572 5568 5564 5561 5557 5553 5549 5545 5541 5537 5532 5528 5524 5519 5515 5511 5507 5503 5499 5495 5491 5487 5483 5479 5475 5472 5468 5464 5460 5456 5452 5447 5443 5439 5434 5430 5425 5420 5416 5412 5407 5403 5399 5394 5390 5385 5381 5376 5372
5696 5694 5692 5688 5687 5686 5682 5678 5674 5670 5667 5665 5664 5661 5656 5651 5647 5642 5638 5635 5629 5623 5620 5617 5613 5611 5611 5605 5598 5594 5589 5585 5582 5579 5576 5573 5569 5565 5561 5557 5554 5550 5546 5542 5538 5533 5529 5525 5520 5516 5512 5508 5503 5499 5495 5491 5487 5483 5479 5475 5472 5468 5465 5461 5457 5453 5448 5444 5440 5435 5431 5426 5422 5417 5413 5408 5404 5399 5395 5391 5386 5382 5377 5373 5368 5363
5691 5688 5686 5682 5679 5680 5678 5673 5669 5665 5662 5660 5660 5657 5651 5646 5642 5637 5633 5630 5624 5618 5616 5611 5605 5605 5605 5598 5592 5589 5583 5578 5575 5572 5568 5565 5561 5557 5553 5549 5546 5542 5538 5534 5529 5525 5521 5516 5512 5508 5503 5499 5495 5491 5487 5483 5479 5475 5471 5468 5464 5460 5457 5453 5449 5445 5441 5436 5432 5427 5423 5418 5414 5409 5405 5400 5396 5391 5387 5383 5378 5374 5369 5365 5360 5355
5687 5682 5680 5676 5671 5672 5671 5666 5662 5658 5655 5654 5653 5650 5646 5640 5636 5632 5628 5624 5618 5613 5609 5605 5599 5598 5597 5591 5586 5583 5577 5572 5568 5564 5561 5558 5553 5549 5545 5541 5537 5534 5530 5526 5521 5517 5512 5508 5503 5499 5495 5491 5486 5482 5478 5475 5471 5467 5463 5460 5456 5453 5449 5446 5442 5437 5433 5428 5424 5420 5415 5411 5406 5402 5397 5393 5388 5384 5380 5375 5371 5366 5361 5357 5352 5347
5682 5677 5674 5669 5664 5664 5663 5658 5654 5650 5647 5646 5646 5643 5639 5634 5628 5624 5621 5618 5613 5607 5602 5597 5593 5590 5587 5583 5579 5576 5571 5566 5562 5557 5554 5551 5546 5541 5537 5534 5530 5526 5521 5517 5512 5508 5503 5499 5495 5491 5486 5482 5478 5474 5470 5466 5463 5459 5455 5452 5449 5445 5442 5438 5434 5429 5425 5421 5416 5412 5407 5403 5399 5394 5390 5385 5381 5376 5372 5368 5363 5358 5354 5349 5344 5339
5677 5672 5668 5663 5658 5656 5655 5651 5645 5642 5639 5639 5638 5635 5631 5626 5620 5616 5613 5611 5606 5601 5595 5590 5586 5583 5580 5575 5572 5568 5564 5559 5555 5551 5547 5543 5538 5533 5530 5526 5522 5517 5513 5508 5504 5500 5495 5491 5487 5483 5478 5474 5470 5466 5463 5459 5455 5452 5448 5444 5441 5438 5434 5430 5426 5421 5417 5413 5409 5404 5400 5396 5391 5387 5382 5378 5373 5369 5364 5360 5355 5351 5346 5341 5336 5332
5672 5667 5662 5658 5652 5648 5648 5644 5637 5633 5633 5631 5630 5628 5624 5618 5613 5608 5606 5604 5599 5594 5588 5583 5579 5577 5572 5568 5564 5560 5556 5552 5548 5544 5540 5535 5530 5526 5522 5518 5513 5509 5505 5500 5496 5492 5488 5483 5479 5475 5470 5466 5462 5459 5455 5451 5448 5444 5441 5437 5434 5430 5426 5422 5418 5414 5410 5406 5402 5397 5393 5389 5384 5380 5375 5370 5366 5361 5357 5352 5348 5343 5339 5334 5329 5324
5667 5661 5656 5652 5646 5641 5639 5635 5629 5625 5626 5626 5625 5621 5616 5610 5605 5600 5598 5597 5594 5588 5581 5576 5573 5569 5565 5560 5556 5551 5548 5545 5541 5538 5532 5526 5521 5518 5514 5510 5506 5501 5497 5493 5488 5484 5479 5475 5471 5467 5462 5458 5455 5451 5448 5444 5441 5437 5433 5430 5426 5423 5419 5415 5411 5407 5403 5399 5395 5391 5386 5382 5377 5372 5368 5363 5359 5354 5349 5345 5340 5336 5331 5326 5321 5317
5661 5655 5650 5645 5640 5636 5631 5625 5619 5615 5616 5618 5617 5612 5606 5600 5596 5591 5587 5587 5587 5580 5572 5568 5565 5561 5556 5552 5547 5542 5539 5536 5535 5532 5524 5517 5514 5511 5506 5502 5498 5493 5489 5484 5480 5476 5471 5467 5463 5459 5455 5451 5447 5443 5440 5437 5433 5429 5426 5423 5419 5416 5412 5408 5404 5400 5396 5392 5388 5384 5379 5374 5370 5365 5361 5356 5352 5347 5342 5338 5333 5329 5324 5319 5314 5309
5654 5649 5644 5637 5633 5630 5624 5616 5610 5606 5606 5608 5607 5602 5595 5590 5587 5582 5577 5577 5577 5570 5563 5560 5557 5552 5547 5543 5538 5534 5529 5526 5526 5524 5517 5511 5507 5503 5498 5494 5490 5485 5481 5476 5472 5468 5463 5459 5455 5451 5447 5443 5439 5436 5432 5429 5425 5422 5419 5416 5412 5409 5405 5401 5397 5393 5389 5385 5381 5376 5372 5368 5363 5358 5353 5349 5344 5340 5335 5330 5325 5321 5316 5312 5307 5301
5646 5641 5637 5630 5626 5623 5616 5608 5602 5598 5599 5601 5598 5591 5586 5582 5579 5574 5568 5567 5566 5559 5553 5551 5547 5542 5538 5534 5529 5525 5520 5517 5516 5515 5509 5504 5499 5495 5490 5486 5481 5477 5472 5468 5464 5460 5456 5452 5448 5443 5439 5435 5431 5428 5424 5421 5418 5415 5412 5408 5405 5401 5397 5393 5390 5386 5382 5378 5374 5369 5365 5361 5356 5351 5347 5342 5337 5333 5328 5323 5318 5314 5309 5304 5300 5294
5638 5633 5628 5623 5619 5615 5607 5600 5595 5592 5594 5594 5588 5581 5577 5573 5569 5565 5559 5556 5554 5549 5544 5541 5537 5532 5528 5523 5520 5517 5512 5507 5505 5504 5500 5496 5491 5487 5483 5478 5474 5469 5464 5460 5456 5452 5448 5444 5440 5435 5431 5428 5424 5420 5417 5413 5410 5407 5404 5401 5397 5394 5390 5386 5382 5379 5375 5371 5367 5363 5359 5354 5350 5345 5340 5335 5330 5326 5321 5317 5312 5307 5302 5298 5293 5287
5629 5624 5619 5615 5611 5605 5598 5590 5586 5586 5589 5586 5578 5572 5568 5563 5559 5556 5551 5546 5542 5538 5535 5531 5526 5522 5519 5514 5510 5508 5504 5499 5495 5493 5490 5487 5483 5479 5475 5470 5466 5461 5457 5453 5448 5444 5440 5436 5432 5428 5424 5420 5417 5413 5410 5406 5403 5400 5397 5394 5390 5386 5383 5379 5375 5372 5368 5364 5360 5356 5352 5348 5343 5338 5334 5329 5324 5319 5315 5310 5306 5301 5296 5291 5286 5281
5619 5614 5610 5606 5601 5594 5588 5582 5576 5577 5580 5577 5569 5564 5559 5553 5550 5546 5541 5537 5532 5527 5524 5522 5517 5513 5509 5506 5502 5498 5495 5491 5487 5484 5481 5478 5474 5471 5466 5462 5458 5453 5449 5445 5441 5437 5433 5428 5424 5420 5417 5413 5410 5406 5403 5399 5396 5393 5390 5387 5383 5379 5376 5372 5369 5365 5361 5357 5353 5349 5345 5341 5336 5332 5327 5323 5318 5313 5308 5303 5299 5294 5289 5284 5279 5274
5611 5604 5600 5596 5591 5583 5579 5574 5570 5568 5568 5565 5560 5555 5549 5544 5541 5536 5531 5529 5525 5519 5515 5512 5509 5504 5499 5496 5493 5489 5486 5482 5479 5475 5472 5469 5465 5462 5457 5454 5449 5445 5441 5437 5433 5429 5425 5421 5417 5413 5409 5406 5403 5399 5396 5392 5389 5386 5383 5380 5376 5372 5369 5365 5362 5358 5354 5350 5347 5342 5338 5334 5330 5325 5321 5316 5311 5306 5301 5296 5292 5287 5282 5278 5273 5267
5602 5596 5590 5586 5581 5574 5569 5567 5565 5561 5558 5553 5549 5546 5540 5534 5530 5524 5519 5518 5517 5512 5505 5502 5500 5495 5489 5486 5484 5481 5477 5473 5470 5467 5464 5460 5456 5453 5448 5445 5441 5436 5433 5429 5425 5421 5417 5413 5409 5406 5402 5399 5396 5392 5389 5386 5382 5379 5376 5373 5369 5365 5362 5358 5355 5351 5348 5344 5340 5336 5332 5327 5323 5319 5314 5310 5305 5300 5295 5290 5285 5280 5275 5270 5266 5261
5591 5587 5581 5576 5571 5566 5562 5559 5557 5555 5551 5544 5539 5535 5531 5526 5520 5513 5507 5505 5504 5501 5496 5492 5489 5486 5481 5476 5474 5472 5468 5465 5461 5458 5455 5451 5448 5444 5440 5436 5432 5428 5425 5421 5417 5413 5409 5405 5401 5398 5395 5392 5389 5385 5382 5379 5375 5372 5369 5366 5362 5359 5355 5352 5348 5345 5341 5337 5333 5329 5325 5321 5317 5312 5308 5303 5299 5294 5289 5284 5278 5273 5267 5263 5258 5253
5581 5576 5571 5567 5562 5559 5558 5554 5548 5544 5542 5537 5530 5524 5519 5515 5511 5505 5499 5495 5493 5490 5486 5482 5479 5476 5472 5468 5465 5462 5460 5456 5453 5450 5446 5442 5439 5435 5431 5427 5424 5420 5416 5412 5408 5404 5401 5397 5394 5391 5388 5385 5382 5378 5375 5372 5369 5365 5362 5359 5356 5352 5349 5345 5342 5338 5334 5331 5327 5323 5319 5315 5310 5306 5301 5297 5292 5287 5282 5277 5272 5266 5260 5255 5250 5246
5571 5566 5561 5557 5554 5550 5548 5546 5541 5537 5535 5529 5521 5516 5511 5505 5501 5496 5490 5486 5484 5481 5477 5473 5469 5467 5464 5460 5456 5454 5451 5448 5444 5441 5438 5434 5430 5426 5422 5419 5415 5411 5408 5404 5400 5396 5393 5389 5386 5383 5381 5378 5375 5372 5368 5365 5362 5358 5355 5352 5349 5345 5342 5339 5335 5331 5328 5324 5321 5317 5313 5308 5304 5299 5294 5290 5285 5280 5275 5270 5265 5259 5253 5247 5242 5238
5562 5557 5552 5548 5546 5542 5537 5532 5529 5529 5529 5522 5509 5503 5500 5496 5493 5490 5484 5478 5475 5472 5468 5465 5461 5457 5455 5452 5447 5445 5443 5440 5436 5432 5429 5425 5421 5417 5414 5410 5406 5403 5399 5395 5391 5388 5385 5382 5379 5376 5373 5371 5368 5365 5362 5359 5356 5352 5348 5345 5342 5339 5336 5332 5328 5325 5321 5318 5314 5310 5306 5302 5297 5293 5288 5282 5278 5273 5268 5262 5257 5252 5246 5239 5234 5230
5551 5547 5541 5537 5536 5535 5528 5520 5514 5515 5520 5518 5507 5496 5490 5485 5482 5481 5477 5470 5466 5462 5459 5456 5453 5449 5446 5443 5440 5436 5434 5432 5428 5424 5420 5416 5412 5409 5405 5402 5398 5394 5391 5387 5384 5380 5377 5375 5372 5369 5366 5364 5362 5359 5356 5353 5349 5346 5342 5338 5335 5332 5329 5325 5322 5318 5314 5311 5307 5303 5299 5295 5291 5286 5281 5276 5271 5265 5260 5254 5249 5244 5239 5232 5225 5220
5540 5535 5530 5524 5522 5521 5517 5511 5503 5498 5500 5504 5500 5492 5484 5476 5470 5469 5467 5462 5458 5454 5450 5447 5445 5442 5438 5435 5431 5428 5426 5423 5419 5415 5412 5408 5404 5401 5397 5393 5390 5386 5383 5379 5376 5373 5370 5368 5365 5362 5359 5357 5354 5352 5349 5346 5343 5339 5336 5332 5328 5325 5322 5319 5315 5311 5307 5304 5300 5296 5293 5288 5284 5279 5275 5270 5264 5259 5253 5246 5240 5235 5231 5226 5219 5212
5530 5525 5519 5512 5508 5506 5503 5499 5493 5486 5483 5484 5483 5480 5475 5468 5461 5459 5457 5453 5449 5446 5442 5438 5436 5433 5430 5427 5423 5419 5417 5414 5410 5407 5403 5399 5396 5392 5389 5385 5382 5379 5375 5372 5369 5366 5363 5361 5358 5355 5352 5350 5347 5345 5342 5339 5337 5333 5330 5326 5322 5318 5315 5312 5308 5304 5300 5297 5293 5290 5286 5281 5277 5272 5268 5263 5258 5253 5248 5241 5234 5227 5220 5215 5211 5206